Zurück zum Katalog

ATLAS CENTAUR 2 DEB

AktivLEO
NORAD 739·DEBRIS·🇺🇸 United States

Gestartet Nov 27, 1963 von Cape Canaveral Space Force Station

Loading…

Nächste Überflüge (nächste 24 Stunden)

TLE

AktuellSource: Space-Track

Epoche: Sep 14, 2026, 13:06 UTC

1 00739U 63047H   26257.54589874  .00000260  00000-0  31442-4 0  9997
2 00739  30.4232 336.4837 0635129  72.1591 294.7224 13.85342187153786

Verfolge ATLAS CENTAUR 2 DEB in Echtzeit mit AllMySat

Download on the App Store